| time (UTC) | temp F | wind direction | speed MPH | gust MPH | rain 1hr in | rain 24hr in | rain mn in | humidity % | barometer mb |
| 20260902090703 | 73 | 248 | 0.0 | 1.0 | 0.01 | 0.07 | 0.05 | 92 | 990.7 |
| 20260902090203 | 74 | 248 | 0.0 | 2.0 | 0.00 | 0.07 | 0.05 | 93 | 990.8 |
| 20260902084704 | 75 | 80 | 0.0 | 2.0 | 0.01 | 0.07 | 0.05 | 92 | 990.4 |
| 20260902084204 | 75 | 71 | 0.0 | 2.0 | 0.01 | 0.07 | 0.05 | 90 | 990.6 |
| 20260902083705 | 75 | 309 | 1.0 | 2.0 | 0.02 | 0.07 | 0.05 | 90 | 990.8 |
| 20260902083204 | 75 | 321 | 1.0 | 2.0 | 0.00 | 0.07 | 0.05 | 92 | 990.8 |
| 20260902081204 | 76 | 359 | 1.0 | 2.0 | 0.04 | 0.06 | 0.04 | 93 | 990.3 |
| 20260902074704 | 77 | 244 | 2.0 | 5.0 | 0.04 | 0.06 | 0.04 | 92 | 991.7 |
| 20260902074204 | 77 | 237 | 2.0 | 3.0 | 0.04 | 0.05 | 0.04 | 92 | 991.7 |
| 20260902073704 | 77 | 272 | 3.0 | 5.0 | 0.04 | 0.05 | 0.04 | 92 | 991.8 |
| 20260902073203 | 78 | 266 | 2.0 | 5.0 | 0.05 | 0.05 | 0.05 | 91 | 991.5 |
| 20260902071703 | 78 | 164 | 0.0 | 2.0 | 0.00 | 0.00 | 0.00 | 89 | 991.0 |
| 20260902071205 | 78 | 238 | 0.0 | 2.0 | 0.00 | 0.00 | 0.00 | 89 | 990.9 |
| 20260902070205 | 78 | 222 | 0.0 | 2.0 | 0.00 | 0.00 | 0.00 | 88 | 990.6 |
| 20260902063704 | 78 | 274 | 2.0 | 3.0 | 0.00 | 0.00 | 0.00 | 88 | 990.9 |
| 20260902063204 | 78 | 300 | 1.0 | 3.0 | 0.00 | 0.00 | 0.00 | 88 | 990.5 |
| 20260902061703 | 79 | 271 | 1.0 | 2.0 | 0.00 | 0.00 | 0.00 | 89 | 990.6 |
| 20260902061204 | 79 | 259 | 0.0 | 2.0 | 0.00 | 0.00 | 0.00 | 89 | 990.7 |
| 20260902060704 | 79 | 278 | 1.0 | 2.0 | 0.00 | 0.00 | 0.00 | 89 | 990.8 |
| 20260902060204 | 79 | 262 | 1.0 | 3.0 | 0.00 | 0.00 | 0.00 | 89 | 990.9 |
| 20260902054703 | 79 | 286 | 2.0 | 3.0 | 0.00 | 0.00 | 0.00 | 90 | 990.5 |
| 20260902054205 | 79 | 289 | 3.0 | 3.0 | 0.00 | 0.00 | 0.00 | 91 | 990.5 |
| 20260902053704 | 79 | 263 | 2.0 | 3.0 | 0.00 | 0.00 | 0.00 | 91 | 990.7 |
| 20260902053204 | 79 | 214 | 0.0 | 3.0 | 0.00 | 0.00 | 0.00 | 91 | 990.6 |
| 20260902050203 | 80 | 246 | 1.0 | 3.0 | 0.00 | 0.00 | 0.00 | 90 | 990.3 |
| 20260902044704 | 80 | 267 | 3.0 | 5.0 | 0.00 | 0.15 | 0.00 | 90 | 990.4 |
| 20260902044205 | 80 | 257 | 2.0 | 3.0 | 0.00 | 0.15 | 0.00 | 90 | 990.5 |
| 20260902043704 | 80 | 268 | 2.0 | 3.0 | 0.00 | 0.15 | 0.00 | 90 | 990.4 |
| 20260902043205 | 79 | 267 | 1.0 | 3.0 | 0.00 | 0.15 | 0.00 | 90 | 990.5 |
| 20260902041205 | 78 | 240 | 0.0 | 2.0 | 0.00 | 0.15 | 0.00 | 91 | 990.5 |
| 20260902040704 | 78 | 262 | 0.0 | 2.0 | 0.00 | 0.15 | 0.00 | 91 | 990.5 |
| 20260902040204 | 77 | 280 | 0.0 | 0.0 | 0.00 | 0.15 | 0.00 | 91 | 990.5 |
| 20260902034703 | 77 | 280 | 0.0 | 1.0 | 0.00 | 0.15 | 0.00 | 90 | 990.4 |
| 20260902033703 | 77 | 105 | 0.0 | 0.0 | 0.00 | 0.15 | 0.00 | 90 | 990.3 |
| 20260902031703 | 78 | 105 | 0.0 | 0.0 | 0.00 | 0.15 | 0.00 | 90 | 990.2 |
| 20260902031203 | 78 | 105 | 0.0 | 1.0 | 0.00 | 0.15 | 0.00 | 90 | 990.1 |
| 20260902030703 | 78 | 105 | 0.0 | 2.0 | 0.00 | 0.15 | 0.00 | 90 | 990.2 |
| 20260902030204 | 78 | 244 | 1.0 | 2.0 | 0.00 | 0.15 | 0.00 | 90 | 990.2 |
| 20260902024703 | 77 | 116 | 1.0 | 3.0 | 0.00 | 0.15 | 0.00 | 89 | 990.3 |
| 20260902024204 | 77 | 76 | 1.0 | 2.0 | 0.00 | 0.15 | 0.00 | 90 | 990.3 |
| 20260902023704 | 77 | 132 | 1.0 | 2.0 | 0.00 | 0.15 | 0.00 | 90 | 990.3 |
| 20260902023204 | 77 | 139 | 0.0 | 2.0 | 0.00 | 0.15 | 0.00 | 90 | 990.2 |
| 20260902021704 | 77 | 125 | 0.0 | 1.0 | 0.00 | 0.15 | 0.00 | 90 | 990.3 |
| 20260902021204 | 77 | 134 | 0.0 | 1.0 | 0.00 | 0.15 | 0.00 | 90 | 990.3 |
| 20260902020704 | 77 | 167 | 0.0 | 0.0 | 0.00 | 0.15 | 0.00 | 90 | 990.3 |
| 20260902020203 | 77 | 167 | 0.0 | 0.0 | 0.00 | 0.15 | 0.00 | 90 | 990.3 |
| 20260902014703 | 77 | 116 | 0.0 | 1.0 | 0.00 | 0.15 | 0.00 | 90 | 990.3 |
| 20260902013703 | 77 | 114 | 0.0 | 0.0 | 0.00 | 0.15 | 0.00 | 90 | 990.1 |
| 20260902011704 | 75 | 235 | 1.0 | 1.0 | 0.00 | 0.15 | 0.00 | 91 | 990.0 |
| 20260902010204 | 74 | 161 | 0.0 | 1.0 | 0.00 | 0.15 | 0.00 | 93 | 989.7 |
| 20260902004704 | 74 | 233 | 0.0 | 1.0 | 0.00 | 0.15 | 0.00 | 92 | 989.4 |
| 20260902004204 | 74 | 236 | 0.0 | 1.0 | 0.00 | 0.15 | 0.00 | 92 | 989.4 |
| 20260902003203 | 74 | 171 | 1.0 | 1.0 | 0.00 | 0.15 | 0.00 | 92 | 989.4 |
| 20260902001703 | 75 | 264 | 0.0 | 2.0 | 0.00 | 0.15 | 0.00 | 92 | 989.4 |
| 20260902001205 | 75 | 302 | 0.0 | 2.0 | 0.00 | 0.15 | 0.00 | 92 | 989.5 |
| 20260902000704 | 76 | 144 | 1.0 | 2.0 | 0.00 | 0.15 | 0.00 | 92 | 989.5 |
| 20260902000204 | 76 | 138 | 0.0 | 2.0 | 0.00 | 0.15 | 0.00 | 92 | 989.6 |
| 20260901234704 | 76 | 106 | 2.0 | 3.0 | 0.00 | 0.15 | 0.00 | 92 | 989.8 |
| 20260901234205 | 76 | 192 | 1.0 | 3.0 | 0.00 | 0.15 | 0.00 | 92 | 989.9 |
| 20260901233705 | 77 | 153 | 2.0 | 3.0 | 0.00 | 0.15 | 0.00 | 92 | 989.8 |
| 20260901233204 | 77 | 197 | 1.0 | 3.0 | 0.00 | 0.15 | 0.00 | 92 | 989.8 |
| 20260901231705 | 77 | 132 | 2.0 | 3.0 | 0.00 | 0.15 | 0.00 | 92 | 989.9 |
| 20260901231204 | 77 | 235 | 1.0 | 3.0 | 0.00 | 0.15 | 0.00 | 92 | 990.0 |
| 20260901230704 | 77 | 176 | 2.0 | 3.0 | 0.00 | 0.15 | 0.00 | 92 | 990.0 |
| 20260901224704 | 79 | 173 | 2.0 | 5.0 | 0.00 | 0.15 | 0.00 | 90 | 990.0 |
| 20260901224204 | 79 | 248 | 1.0 | 5.0 | 0.00 | 0.15 | 0.00 | 90 | 990.0 |
| 20260901223704 | 79 | 160 | 2.0 | 5.0 | 0.00 | 0.15 | 0.00 | 89 | 990.0 |
| 20260901223206 | 80 | 174 | 2.0 | 5.0 | 0.00 | 0.15 | 0.00 | 89 | 989.9 |
| 20260901221204 | 80 | 196 | 2.0 | 5.0 | 0.00 | 0.15 | 0.00 | 89 | 990.0 |
| 20260901220704 | 79 | 138 | 3.0 | 5.0 | 0.00 | 0.15 | 0.00 | 89 | 990.0 |
| 20260901220205 | 80 | 146 | 3.0 | 5.0 | 0.00 | 0.15 | 0.00 | 89 | 990.1 |
| 20260901214203 | 79 | 105 | 2.0 | 6.0 | 0.00 | 0.15 | 0.00 | 89 | 990.3 |
| 20260901213203 | 79 | 62 | 3.0 | 5.0 | 0.00 | 0.15 | 0.00 | 90 | 990.3 |
| 20260901211704 | 79 | 110 | 3.0 | 5.0 | 0.00 | 0.15 | 0.00 | 89 | 990.4 |
| 20260901211205 | 79 | 101 | 1.0 | 5.0 | 0.00 | 0.15 | 0.00 | 90 | 990.4 |
| 20260901210703 | 79 | 67 | 3.0 | 5.0 | 0.00 | 0.15 | 0.00 | 90 | 990.5 |
| 20260901210204 | 78 | 110 | 1.0 | 3.0 | 0.00 | 0.15 | 0.00 | 90 | 990.5 |
| 20260901204204 | 78 | 88 | 2.0 | 5.0 | 0.00 | 0.15 | 0.00 | 91 | 990.5 |
| 20260901203703 | 78 | 80 | 2.0 | 6.0 | 0.00 | 0.15 | 0.00 | 91 | 990.4 |
| 20260901201205 | 80 | 83 | 3.0 | 7.0 | 0.00 | 0.15 | 0.00 | 89 | 990.5 |
| 20260901200703 | 80 | 107 | 2.0 | 5.0 | 0.00 | 0.15 | 0.00 | 90 | 990.7 |
| 20260901200204 | 81 | 81 | 3.0 | 3.0 | 0.00 | 0.15 | 0.00 | 88 | 990.6 |
| 20260901194703 | 81 | 112 | 2.0 | 5.0 | 0.00 | 0.15 | 0.00 | 88 | 990.7 |
| 20260901193705 | 80 | 105 | 1.0 | 6.0 | 0.00 | 0.15 | 0.00 | 87 | 990.9 |
| 20260901193205 | 80 | 113 | 2.0 | 6.0 | 0.00 | 0.15 | 0.00 | 88 | 990.9 |
| 20260901191204 | 81 | 225 | 2.0 | 3.0 | 0.00 | 0.15 | 0.00 | 87 | 990.8 |
| 20260901190703 | 81 | 96 | 3.0 | 3.0 | 0.00 | 0.15 | 0.00 | 88 | 990.8 |
| 20260901190204 | 80 | 61 | 1.0 | 3.0 | 0.00 | 0.15 | 0.00 | 87 | 990.7 |
| 20260901184705 | 79 | 148 | 1.0 | 6.0 | 0.00 | 0.15 | 0.00 | 90 | 990.9 |
| 20260901184204 | 80 | 80 | 3.0 | 6.0 | 0.00 | 0.15 | 0.00 | 89 | 990.9 |
| 20260901183704 | 80 | 105 | 2.0 | 6.0 | 0.00 | 0.15 | 0.00 | 87 | 990.8 |
| 20260901183204 | 80 | 136 | 1.0 | 6.0 | 0.00 | 0.15 | 0.00 | 88 | 990.9 |
| 20260901181704 | 81 | 59 | 2.0 | 5.0 | 0.00 | 0.15 | 0.00 | 85 | 990.9 |
| 20260901180704 | 82 | 78 | 2.0 | 5.0 | 0.00 | 0.15 | 0.00 | 85 | 990.9 |
| 20260901173703 | 81 | 65 | 2.0 | 5.0 | 0.00 | 0.15 | 0.00 | 84 | 991.0 |
| 20260901173205 | 81 | 123 | 3.0 | 7.0 | 0.00 | 0.15 | 0.00 | 85 | 991.1 |
| 20260901171703 | 82 | 99 | 2.0 | 6.0 | 0.00 | 0.15 | 0.00 | 84 | 991.2 |
| 20260901171204 | 82 | 124 | 2.0 | 6.0 | 0.00 | 0.15 | 0.00 | 84 | 991.3 |
| 20260901170204 | 83 | 88 | 1.0 | 3.0 | 0.00 | 0.15 | 0.00 | 82 | 991.4 |
| 20260901164704 | 83 | 85 | 2.0 | 3.0 | 0.00 | 0.15 | 0.00 | 82 | 991.6 |
| 20260901164204 | 83 | 158 | 2.0 | 3.0 | 0.00 | 0.15 | 0.00 | 81 | 991.7 |
| 20260901163703 | 84 | 83 | 2.0 | 5.0 | 0.00 | 0.15 | 0.00 | 81 | 991.7 |
| 20260901161704 | 82 | 120 | 2.0 | 3.0 | 0.00 | 0.15 | 0.00 | 83 | 991.8 |
| 20260901160703 | 81 | 207 | 1.0 | 5.0 | 0.00 | 0.15 | 0.00 | 84 | 991.7 |
| 20260901160204 | 81 | 62 | 2.0 | 5.0 | 0.00 | 0.15 | 0.00 | 84 | 991.8 |
| 20260901154703 | 82 | 100 | 1.0 | 3.0 | 0.00 | 0.15 | 0.00 | 82 | 991.7 |
| 20260901154204 | 82 | 184 | 1.0 | 5.0 | 0.00 | 0.15 | 0.00 | 82 | 991.7 |
| 20260901153703 | 82 | 73 | 1.0 | 5.0 | 0.00 | 0.15 | 0.00 | 84 | 991.7 |
| 20260901153204 | 82 | 90 | 1.0 | 5.0 | 0.00 | 0.15 | 0.00 | 82 | 991.6 |
| 20260901151703 | 82 | 92 | 1.0 | 5.0 | 0.00 | 0.15 | 0.00 | 82 | 991.6 |
| 20260901151205 | 81 | 66 | 2.0 | 3.0 | 0.00 | 0.15 | 0.00 | 84 | 991.6 |
| 20260901150703 | 81 | 43 | 1.0 | 5.0 | 0.00 | 0.15 | 0.00 | 86 | 991.6 |
| 20260901150205 | 80 | 329 | 2.0 | 5.0 | 0.00 | 0.15 | 0.00 | 87 | 991.6 |
| 20260901144703 | 80 | 64 | 2.0 | 5.0 | 0.00 | 0.15 | 0.00 | 88 | 991.5 |
| 20260901144203 | 79 | 313 | 2.0 | 5.0 | 0.00 | 0.15 | 0.00 | 90 | 991.5 |
| 20260901143704 | 79 | 14 | 1.0 | 5.0 | 0.00 | 0.15 | 0.00 | 89 | 991.5 |
| 20260901143203 | 79 | 19 | 2.0 | 3.0 | 0.00 | 0.15 | 0.00 | 88 | 991.5 |
| 20260901141204 | 78 | 84 | 2.0 | 6.0 | 0.00 | 0.15 | 0.00 | 90 | 991.4 |
| 20260901140703 | 78 | 80 | 3.0 | 3.0 | 0.00 | 0.15 | 0.00 | 89 | 991.5 |
| 20260901134704 | 79 | 2 | 1.0 | 3.0 | 0.00 | 0.15 | 0.00 | 90 | 991.5 |
| 20260901134203 | 79 | 346 | 2.0 | 3.0 | 0.00 | 0.15 | 0.00 | 89 | 991.4 |
| 20260901133704 | 79 | 0 | 1.0 | 3.0 | 0.00 | 0.15 | 0.00 | 89 | 991.4 |
| 20260901131704 | 77 | 294 | 1.0 | 3.0 | 0.00 | 0.15 | 0.00 | 92 | 991.5 |
| 20260901130704 | 76 | 275 | 2.0 | 3.0 | 0.00 | 0.15 | 0.00 | 93 | 991.6 |
| 20260901130205 | 76 | 287 | 2.0 | 3.0 | 0.00 | 0.15 | 0.00 | 93 | 991.6 |
| 20260901124705 | 75 | 299 | 2.0 | 3.0 | 0.00 | 0.15 | 0.00 | 93 | 991.4 |
| 20260901123703 | 74 | 292 | 2.0 | 3.0 | 0.00 | 0.15 | 0.00 | 94 | 991.3 |
| 20260901121704 | 72 | 77 | 0.0 | 0.0 | 0.00 | 0.15 | 0.00 | 96 | 991.0 |
| 20260901120705 | 71 | 77 | 0.0 | 0.0 | 0.00 | 0.15 | 0.00 | 96 | 991.0 |
| 20260901114703 | 70 | 77 | 0.0 | 1.0 | 0.00 | 0.16 | 0.00 | 96 | 990.7 |
| 20260901113704 | 70 | 31 | 0.0 | 0.0 | 0.00 | 0.16 | 0.00 | 95 | 990.5 |
| 20260901113204 | 70 | 31 | 0.0 | 0.0 | 0.00 | 0.16 | 0.00 | 95 | 990.6 |
| 20260901111204 | 71 | 31 | 0.0 | 0.0 | 0.00 | 0.17 | 0.00 | 95 | 990.4 |
| 20260901110704 | 72 | 31 | 0.0 | 0.0 | 0.00 | 0.17 | 0.00 | 95 | 990.4 |
| 20260901104704 | 73 | 31 | 0.0 | 2.0 | 0.00 | 0.17 | 0.00 | 95 | 990.1 |
| 20260901104205 | 73 | 14 | 2.0 | 2.0 | 0.00 | 0.19 | 0.00 | 95 | 990.0 |
| 20260901103203 | 73 | 299 | 2.0 | 3.0 | 0.00 | 0.25 | 0.00 | 96 | 990.1 |
| 20260901101703 | 72 | 298 | 2.0 | 3.0 | 0.00 | 0.32 | 0.00 | 96 | 990.2 |
| 20260901101204 | 72 | 281 | 1.0 | 2.0 | 0.00 | 0.32 | 0.00 | 95 | 990.2 |
| 20260901100705 | 72 | 269 | 0.0 | 0.0 | 0.00 | 0.33 | 0.00 | 95 | 990.2 |
| 20260901100204 | 73 | 269 | 0.0 | 2.0 | 0.00 | 0.33 | 0.00 | 96 | 990.2 |
| 20260901094704 | 72 | 277 | 1.0 | 2.0 | 0.00 | 0.33 | 0.00 | 96 | 990.3 |
| 20260901094203 | 72 | 277 | 1.0 | 2.0 | 0.00 | 0.33 | 0.00 | 96 | 990.3 |
| 20260901093704 | 72 | 280 | 2.0 | 2.0 | 0.00 | 0.33 | 0.00 | 97 | 990.3 |
| 20260901093204 | 72 | 260 | 0.0 | 2.0 | 0.00 | 0.33 | 0.00 | 97 | 990.3 |
| 20260901091704 | 71 | 280 | 2.0 | 2.0 | 0.00 | 0.33 | 0.00 | 97 | 990.3 |
| 20260901091205 | 71 | 86 | 0.0 | 0.0 | 0.00 | 0.33 | 0.00 | 96 | 990.2 |